sat.trackr.live / text

‹ back to catalog

STARLINK-11614 [DTC]

NORAD 63270 · 2025-053F

PAYLOAD ACTIVE UNKNOWN

§ Identity

Operator
Country
US
Launch date
2025-03-15
Launch site
AFETR
Launch vehicle
Mass (kg)
RCS (m²)

Purposes: comms

External: N2YO · Heavens-Above · Gunter

§ Orbital elements

Epoch: 2026-09-20T08:34:53.301504Z

Period
91.67 min
Inclination
42.9999°
Eccentricity
0.0001619
Mean motion
15.70881542 rev/d
Perigee alt
355.3 km
Apogee alt
357.5 km
Semi-major
6,734.5 km
B*
1.0204e-3
RAAN
19.0205°
Arg perigee
270.5866°
Mean anomaly
89.4816°
Rev number
8,828

§ Raw data

STARLINK-11614 [DTC]1 63270U 25053F   26263.35756136  .00132833  00000+0  10204-2 0  99962 63270  42.9999  19.0205 0001619 270.5866  89.4816 15.70881542 88283

JSON: /api/v1/satellites/63270 · /tle

For live sub-satellite position, see the globe view (requires WebGL).

§ Visibility from observer

Set your observer location to see the next 7 days of passes ≥ 10°. The values pass through the URL so the page stays shareable.

No JS? Fill the form by hand. The geolocation button needs JavaScript.